DW2849 Weather Reports


Display with metric or nautical units.
time (UTC)temp
F
wind
direction
speed
MPH
gust
MPH
rain 1hr
in
rain 24hr
in
rain mn
in
humidity
%
barometer
mb
20260906051204 56 315 1.0 2.0 0.00 0.01 0.01 80 1013.7
20260906050104 56 315 1.0 3.0 0.00 0.01 0.01 79 1013.7
20260906044813 55 332 0.0 3.0 0.00 0.01 0.01 83 1013.7
20260906043713 55 315 1.0 3.0 0.00 0.01 0.01 83 1013.8
20260906042617 55 349 2.0 3.0 0.00 0.01 0.01 83 1013.7
20260906041321 54 315 2.0 3.0 0.00 0.01 0.01 85 1013.5
20260906040221 55 260 2.0 6.0 0.00 0.01 0.01 84 1013.5
20260906035121 55 222 2.0 3.0 0.00 0.01 0.01 84 1013.5
20260906034021 55 239 2.0 3.0 0.00 0.01 0.01 83 1013.4
20260906032922 55 222 2.0 4.0 0.00 0.01 0.01 83 1013.4
20260906031630 56 248 2.0 4.0 0.00 0.01 0.01 82 1013.4
20260906030530 56 270 2.0 4.0 0.00 0.01 0.01 82 1013.5
20260906025430 57 264 2.0 3.0 0.00 0.01 0.01 81 1013.4
20260906024330 57 245 2.0 4.0 0.00 0.01 0.01 80 1013.5
20260906023230 58 270 2.0 4.0 0.00 0.01 0.01 78 1013.6
20260906022130 59 270 2.0 4.0 0.00 0.01 0.01 77 1013.6
20260906021030 59 212 3.0 6.0 0.00 0.01 0.01 78 1013.7
20260906015738 60 259 3.0 6.0 0.00 0.01 0.01 77 1013.7
20260906014639 60 214 3.0 8.0 0.00 0.01 0.01 76 1013.7
20260906013538 61 283 3.0 6.0 0.00 0.01 0.01 74 1013.7
20260906012311 61 235 4.0 8.0 0.00 0.01 0.01 74 1013.7
20260906011211 61 208 4.0 8.0 0.00 0.01 0.01 74 1013.7
20260906010111 62 264 3.0 6.0 0.00 0.01 0.01 73 1013.7
20260906005011 62 267 3.0 7.0 0.00 0.01 0.01 72 1013.8
20260906003720 63 276 4.0 6.0 0.00 0.01 0.01 72 1013.8
20260906002619 63 260 4.0 8.0 0.00 0.01 0.01 72 1013.8
20260906001521 63 267 3.0 7.0 0.00 0.01 0.01 72 1013.9
20260906000420 64 312 3.0 5.0 0.00 0.01 0.01 71 1013.9
20260905235319 64 255 3.0 7.0 0.00 0.01 0.01 72 1013.9
20260905234220 65 289 4.0 6.0 0.00 0.01 0.01 71 1013.9
20260905233120 66 248 3.0 8.0 0.00 0.01 0.01 70 1014.0
20260905231828 66 260 3.0 6.0 0.00 0.01 0.01 69 1014.0
20260905230728 67 228 3.0 7.0 0.00 0.01 0.01 68 1014.2
20260905225628 67 238 4.0 5.0 0.00 0.01 0.01 67 1014.4
20260905224528 0 202 3.0 5.0 0.00 0.01 0.01 1014.4
20260905223428 68 239 2.0 11.0 0.00 0.01 0.01 68 1014.5
20260905222137 68 220 3.0 4.0 0.00 0.01 0.01 69 1014.5
20260905221037 0 238 3.0 7.0 0.00 0.01 0.01 1014.6
20260905215937 69 248 5.0 12.0 0.00 0.01 0.01 68 1014.6
20260905214837 69 256 3.0 6.0 0.00 0.01 0.01 69 1014.6
20260905213546 70 210 3.0 4.0 0.00 0.01 0.01 66 1014.6
20260905212447 69 219 4.0 7.0 0.00 0.01 0.01 67 1014.6
20260905211154 69 195 3.0 6.0 0.00 0.01 0.01 68 1014.7
20260905210055 69 214 3.0 6.0 0.00 0.01 0.01 66 1014.7
20260905204954 68 206 3.0 5.0 0.00 0.01 0.01 67 1014.7
20260905203854 70 251 3.0 8.0 0.00 0.01 0.01 67 1014.8
20260905202756 69 199 3.0 6.0 0.00 0.01 0.01 68 1014.7
20260905201654 70 199 3.0 4.0 0.00 0.01 0.01 68 1014.6
20260905200554 70 270 3.0 6.0 0.00 0.01 0.01 68 1014.6
20260905195306 69 193 1.0 3.0 0.00 0.01 0.01 69 1014.6
20260905194203 69 32 2.0 4.0 0.00 0.01 0.01 69 1014.6
20260905193107 68 128 2.0 4.0 0.00 0.01 0.01 70 1014.6
20260905192003 68 169 2.0 4.0 0.00 0.01 0.01 70 1014.6
20260905190712 67 109 1.0 3.0 0.00 0.01 0.01 69 1014.7
20260905185612 67 152 2.0 4.0 0.00 0.01 0.01 71 1014.8
20260905184512 66 172 2.0 3.0 0.00 0.01 0.01 72 1014.8
20260905183412 66 124 1.0 4.0 0.00 0.01 0.01 72 1014.8
20260905182312 65 180 2.0 3.0 0.00 0.01 0.01 73 1014.8
20260905181212 64 270 2.0 5.0 0.00 0.01 0.01 72 1014.7
20260905180112 63 218 3.0 3.0 0.00 0.01 0.01 74 1014.8
20260905174821 62 231 1.0 2.0 0.00 0.01 0.01 75 1014.7
20260905173722 61 177 2.0 5.0 0.00 0.01 0.01 76 1014.8
20260905172621 61 158 1.0 2.0 0.00 0.01 0.01 74 1014.8
20260905171329 60 112 1.0 2.0 0.00 0.01 0.01 75 1014.6
20260905170230 59 127 1.0 3.0 0.00 0.01 0.01 76 1014.6
20260905165129 59 148 0.0 2.0 0.01 0.01 0.01 76 1014.5
20260905164029 59 180 1.0 4.0 0.01 0.01 0.01 79 1014.4
20260905162929 58 195 1.0 3.0 0.01 0.01 0.01 80 1014.4
20260905161829 57 158 1.0 1.0 0.01 0.01 0.01 82 1014.2
20260905160729 57 225 0.0 2.0 0.01 0.01 0.01 80 1014.3
20260905155629 57 180 0.0 1.0 0.00 0.00 0.00 81 1014.3
20260905154529 56 225 0.0 0.0 0.00 0.00 0.00 82 1014.3
20260905153238 56 0 0.0 1.0 0.00 0.00 0.00 82 1014.2
20260905152138 55 0 0.0 0.0 0.00 0.00 0.00 82 1014.1
20260905151038 55 0 0.0 2.0 0.00 0.00 0.00 83 1014.0
20260905145938 54 0 1.0 2.0 0.00 0.00 0.00 84 1013.9
20260905144838 54 45 2.0 2.0 0.00 0.00 0.00 83 1013.8
20260905143546 54 45 2.0 2.0 0.00 0.00 0.00 84 1013.9
20260905142446 54 22 2.0 2.0 0.00 0.00 0.00 84 1013.8
20260905141346 54 0 2.0 2.0 0.00 0.00 0.00 84 1013.7
20260905140054 54 0 1.0 2.0 0.00 0.00 0.00 84 1013.6
20260905134955 54 45 1.0 2.0 0.00 0.00 0.00 84 1013.6
20260905133854 54 45 1.0 2.0 0.00 0.00 0.00 83 1013.6
20260905132754 54 45 1.0 2.0 0.00 0.00 0.00 82 1013.5
20260905131655 55 0 1.0 2.0 0.00 0.00 0.00 81 1013.4
20260905130403 54 0 1.0 2.0 0.00 0.00 0.00 81 1013.4
20260905125306 55 0 1.0 1.0 0.00 0.00 0.00 81 1013.4
20260905124203 55 45 0.0 0.0 0.00 0.00 0.00 79 1013.4
20260905122912 55 45 0.0 0.0 0.00 0.00 0.00 78 1013.3
20260905121812 56 45 0.0 0.0 0.00 0.00 0.00 78 1013.4
20260905120711 56 45 0.0 0.0 0.00 0.00 0.00 78 1013.4
20260905115612 55 45 1.0 2.0 0.00 0.00 0.00 78 1013.5
20260905114511 55 45 1.0 2.0 0.00 0.00 0.00 79 1013.5
20260905113412 55 45 2.0 2.0 0.00 0.00 0.00 79 1013.5
20260905112312 55 45 1.0 2.0 0.00 0.00 0.00 79 1013.5
20260905111020 56 22 1.0 2.0 0.00 0.00 0.00 78 1013.6
20260905105921 57 22 1.0 2.0 0.00 0.00 0.00 75 1013.6
20260905104629 57 0 0.0 0.0 0.00 0.00 0.00 74 1013.5
20260905103529 57 68 0.0 0.0 0.00 0.00 0.00 74 1013.6
20260905102429 57 315 0.0 0.0 0.00 0.00 0.00 74 1013.6
20260905101329 57 315 0.0 0.0 0.00 0.00 0.00 75 1013.6
20260905100229 57 315 0.0 0.0 0.00 0.00 0.00 74 1013.6
20260905095129 57 270 0.0 0.0 0.00 0.00 0.00 74 1013.7
20260905094029 57 205 0.0 0.0 0.00 0.00 0.00 74 1013.8
20260905092929 56 202 0.0 0.0 0.00 0.00 0.00 76 1013.9
20260905091829 56 270 0.0 0.0 0.00 0.00 0.00 76 1013.9
20260905090538 56 270 0.0 0.0 0.00 0.00 0.00 78 1013.9
20260905085438 56 270 0.0 0.0 0.00 0.00 0.00 78 1013.9
20260905084338 57 315 0.0 0.0 0.00 0.00 0.00 76 1014.0
20260905083238 57 315 0.0 0.0 0.00 0.00 0.00 76 1014.1
20260905081946 57 315 0.0 1.0 0.00 0.00 0.00 77 1014.0
20260905080846 57 315 0.0 1.0 0.00 0.00 0.00 76 1014.1
20260905075746 57 315 0.0 0.0 0.00 0.00 0.00 78 1014.1
20260905074647 57 315 0.0 2.0 0.00 0.00 0.00 77 1014.1
20260905073546 57 315 2.0 2.0 0.00 0.00 0.00 77 1014.1
20260905072255 57 292 0.0 0.0 0.00 0.00 0.00 77 1014.1
20260905071156 57 292 0.0 0.0 0.00 0.00 0.00 78 1014.1
20260905070055 56 292 1.0 1.0 0.00 0.00 0.00 79 1014.0
20260905064955 57 292 0.0 0.0 0.00 0.00 0.00 78 1014.0
20260905063855 56 292 0.0 2.0 0.00 0.00 0.00 80 1013.9
20260905062604 55 292 1.0 2.0 0.00 0.00 0.00 83 1013.9
20260905061507 56 292 0.0 2.0 0.00 0.00 0.00 81 1013.9
20260905060213 55 292 1.0 2.0 0.00 0.00 0.00 82 1013.9
20260905055113 55 292 1.0 2.0 0.00 0.00 0.00 83 1014.0
20260905054013 55 323 0.0 2.0 0.00 0.00 0.00 84 1014.1
20260905052912 55 0 1.0 2.0 0.00 0.00 0.00 84 1014.1